SCP
-0 -0 -0 0 0 0 -0 -0 -0 -0 -0 -0 0 -0 -0 -0 -0 -0 0 -0 -0 0 0 0 0 0 0 -0 0 -0 -0 0 0 0 0 0 0 0 0 0 0 0 -0 -0 -0 -0 -0 -0 -0
-0 0 0 0 0 -0 -0 -0 -0 -0 -0 -0 -0 0 -0 -0 -0 -0 -0 0 -0 -0 0 0 0 0 0 0 -0 -0 -0 -0 0 0 0 0 0 0 0 0 0 0 -0 -0 -0 -0 -0 -0 -0
-0 -0 0 -0 0 -0 -0 0 -0 -0 0 -0 -0 -0 -0 -0 -0 -0 -0 0 -0 -0 -0 0 0 -0 -0 -0 -0 -0 -0 -0 -0 0 0 0 0 0 0 0 -0 -0 -0 0 0 -0 -0 -0 -0
0 -0 -0 0 -0 0 -0 -0 -0 -0 -0 -0 -0 -0 -0 -0 -0 -0 0 -0 -0 0 0 0 0 -0 -0 -0 -0 -0 -0 -0 -0 -0 -0 0 0 0 0 0 0 -0 -0 -0 -0 -0 -0 -0 -0
-0 -0 -0 -0 0 0 0 -0 -0 -0 -0 0 0 -0 -0 -0 -0 -0 0 0 -0 0 -0 -0 0 -0 -0 -0 -0 -0 -0 -0 -0 -0 -0 -0 -0 -0 -0 -0 -0 -0 -0 -0 0 -0 -0 -0 -0
-0 -0 -0 0 0 0 0 0 -0 -0 0 -0 -0 -0 -0 -0 -0 0 0 -0 -0 -0 -0 -0 -0 -0 -0 -0 -0 -0 -0 -0 -0 -0 -0 -0 -0 -0 -0 -0 0 -0 -0 0 -0 -0 0 -0 -0
0 -0 0 0 0 0 0 0 -0 0 -0 -0 -0 -0 -0 -0 0 0 0 -0 -0 -0 -0 -0 -0 -0 -0 -0 -0 -0 -0 -0 -0 -0 -0 -0 -0 -0 -0 -0 -0 -0 0 -0 0 0 0 0 -0
0 -0 0 -0 -0 0 0 0 0 0 0 0 -0 0 -0 -0 0 0 -0 0 -0 -0 -0 -0 -0 -0 0 -0 -0 -0 -0 -0 -0 -0 -0 0 0 0 0 0 0 0 -0 0 0 0 -0 -0 0
0 0 -0 0 -0 0 0 0 0 0 0 0 0 -0 -0 -0 0 -0 -0 -0 0 0 -0 -0 -0 -0 -0 -0 -0 -0 -0 -0 -0 0 0 -0 -0 0 0 -0 0 0 -0 0 0 0 0 0 -0
0 0 -0 -0 -0 -0 0 0 0 0 0 0 -0 -0 -0 -0 0 -0 -0 -0 -0 0 -0 0 -0 -0 -0 -0 -0 0 -0 0 0 0 0 -0 0 0 0 0 0 0 0 0 0 0 0 1 0
-0 0 0 0 -0 -0 0 0 0 0 -0 0 -0 -0 -0 -0 0 0 0 -0 -0 -0 -0 -0 -0 0 -0 -0 0 0 -0 -0 0 -0 -0 0 -0 -0 -0 0 0 0 0 0 0 1 0 0 0
-0 -0 -0 -0 -0 0 0 0 0 0 0 0 -0 -0 -0 -0 -0 -0 -0 0 0 0 -0 -0 -0 -0 -0 -0 -0 0 0 -0 -0 0 -0 0 0 0 0 0 0 0 0 0 0 0 0 0 0
0 0 -0 -0 0 0 0 0 0 0 0 0 -0 -0 -0 -0 -0 0 0 -0 0 0 0 -0 0 0 0 0 0 0 -0 -0 0 0 0 -0 0 0 0 0 0 0 0 0 0 0 0 0 0
0 -0 -0 -0 -0 0 0 0 0 0 0 0 -0 -0 -0 -0 0 0 0 0 0 0 0 0 -0 -0 0 0 0 0 0 -0 0 0 0 0 0 0 0 0 0 0 0 0 0 0 0 0 0
0 -0 -0 -0 0 0 0 0 0 0 0 0 -0 0 0 0 0 0 0 0 0 0 -0 0 0 0 0 0 -0 0 0 -0 -0 0 0 0 0 0 0 0 0 -0 0 0 0 0 0 0 0
0 -0 -0 -0 0 0 0 0 0 0 0 0 -0 -0 0 0 -0 0 0 0 0 -0 0 -0 -0 0 -0 -0 0 0 -0 -0 -0 0 0 0 0 0 1 0 0 0 0 0 0 0 0 0 0
0 0 -0 0 -0 0 0 0 0 0 0 0 -0 -0 -0 0 0 0 0 0 0 0 0 0 0 -0 0 0 0 0 0 0 0 -0 0 0 0 0 0 0 0 1 0 0 0 0 0 0 0
0 0 -0 -0 -0 0 0 0 0 0 0 -0 -0 -0 0 0 -0 0 0 -0 0 -0 0 0 0 -0 0 -0 0 -0 0 0 0 0 0 0 0 0 0 0 0 1 0 0 0 0 0 0 0
0 -0 -0 -0 -0 0 0 0 0 0 0 0 -0 0 0 0 -0 0 -0 -0 0 -0 0 0 -0 0 -0 0 0 0 0 0 0 0 0 0 0 0 0 0 0 0 0 0 0 0 0 0 0
0 0 0 0 0 0 -0 0 -0 0 0 0 0 -0 0 0 -0 -0 -0 -0 -0 0 -0 0 0 0 -0 0 0 0 0 0 0 0 -0 0 0 0 0 0 0 0 0 0 0 0 0 -0 0
0 0 0 -0 -0 0 -0 0 -0 -0 -0 0 0 0 0 0 -0 -0 0 0 0 0 0 0 0 0 0 0 0 0 0 0 0 0 0 0 -0 0 0 0 0 0 0 -0 0 0 0 0 0
0 0 0 -0 0 -0 0 0 -0 -0 0 -0 0 -0 -0 0 0 -0 0 0 -0 -0 0 -0 -0 0 0 0 0 0 0 0 0 0 -0 0 0 0 -0 -0 0 0 0 0 0 0 0 0 -0
0 0 -0 -0 0 -0 0 0 -0 -0 -0 0 -0 0 0 0 -0 0 0 0 0 0 0 -0 -0 0 0 -0 -0 -0 0 0 0 0 0 0 0 0 -0 -0 0 0 0 0 0 0 0 0 0
0 0 0 0 0 0 0 0 0 -0 -0 0 0 0 0 -0 -0 0 0 0 0 0 0 0 0 0 -0 -0 0 0 0 0 0 0 0 -0 -0 -0 0 -0 -0 0 0 0 0 0 0 0 0
0 0 0 0 0 0 -0 0 -0 -0 -0 -0 -0 -0 -0 -0 0 0 0 0 0 0 0 0 0 0 0 0 0 -0 0 0 0 0 0 0 0 -0 0 0 0 0 0 0 0 0 0 0 0
0 0 0 0 0 0 0 0 0 -0 -0 -0 -0 0 -0 0 0 0 0 0 0 -0 0 0 0 0 0 0 -0 -0 0 0 -0 -0 0 0 0 0 0 -0 -0 0 -0 0 0 0 0 -0 -0
0 0 0 0 0 0 0 0 0 0 -0 -0 -0 -0 0 -0 0 0 0 0 0 0 0 0 0 0 0 0 0 0 0 0 0 0 0 0 0 0 0 0 0 0 0 0 0 0 0 0 0
0 0 0 0 -0 -0 0 0 0 0 -0 -0 -0 -0 -0 0 0 0 0 0 0 0 0 0 0 0 0 0 0 0 0 0 0 0 0 0 0 0 0 0 0 0 -0 -0 0 -0 0 0 0
0 0 0 0 0 0 0 0 0 0 -0 -0 -0 -0 -0 0 1 1 0 0 1 0 0 0 0 0 0 0 0 0 0 0 0 0 0 0 0 0 0 -0 0 0 -0 -0 -0 0 0 0 0
0 0 0 0 0 0 0 0 0 0 0 0 0 -0 -0 0 -0 0 0 1 0 0 1 0 0 0 0 0 0 0 0 0 0 0 0 0 0 0 0 0 0 0 0 0 0 -0 -0 0 0
Wind_Speed_500mb
7 1 8 13 6 8 11 16 26 32 29 30 23 28 34 38 20 26 53 43 40 35 32 30 29 30 30 29 29 29 30 31 31 33 32 35 37 37 38 38 39 39 39 37 37 34 30 33 33
5 7 5 8 6 9 17 27 34 25 32 32 30 24 41 28 43 59 51 47 40 34 28 27 29 27 27 26 25 27 30 30 31 31 33 35 37 34 38 39 36 38 38 38 36 33 31 32 32
11 9 6 5 4 3 21 23 34 34 37 29 26 27 22 43 50 45 53 48 44 40 33 29 27 23 22 24 23 23 25 27 29 30 31 35 35 38 39 40 39 35 35 35 32 30 30 33 31
4 10 8 4 12 3 18 28 37 44 29 18 33 26 29 38 37 53 51 46 35 31 25 27 22 20 18 18 18 20 21 25 29 28 30 33 35 36 38 36 31 30 31 30 32 31 28 30 31
5 6 2 5 16 8 15 38 43 31 29 26 19 39 49 28 48 51 47 39 43 35 27 26 23 19 18 19 18 19 22 24 27 29 31 31 32 32 35 35 34 36 35 35 34 31 31 31 32
3 8 3 5 17 10 19 27 31 30 29 30 49 46 34 41 49 47 42 40 32 36 32 23 22 19 21 21 20 21 22 24 27 27 31 30 32 31 33 34 36 37 37 37 37 35 33 34 33
7 4 3 7 19 21 9 13 20 28 24 42 33 37 38 48 44 44 40 38 33 28 27 22 18 18 19 22 21 23 24 25 29 27 28 30 31 29 30 32 36 37 36 38 37 36 34 34 34
8 5 8 7 14 10 9 7 5 10 25 30 39 18 47 51 46 43 39 31 31 25 23 27 22 16 22 19 23 24 27 26 29 28 29 30 32 31 30 28 33 31 35 35 36 37 37 36 37
10 7 5 11 17 13 12 12 7 16 24 15 12 43 53 51 46 44 39 32 28 23 28 23 18 25 19 20 21 23 25 28 27 27 32 35 23 25 26 28 34 34 35 35 38 38 33 35 41
12 5 10 12 18 25 17 24 20 25 23 18 40 50 52 49 46 44 42 35 29 25 23 23 27 19 26 20 22 22 26 22 23 23 27 28 31 29 23 30 30 31 33 33 35 33 31 21 15
11 3 5 5 27 39 20 25 27 26 18 36 51 60 52 50 44 41 37 32 30 25 28 27 25 25 20 17 21 21 14 19 26 24 25 26 26 27 20 23 20 18 22 17 21 17 22 18 18
5 5 22 27 40 29 16 14 10 17 19 35 49 54 53 49 44 41 38 34 29 24 25 24 25 15 21 19 24 19 20 20 22 21 24 27 23 22 17 17 17 15 14 18 20 19 18 18 19
12 8 28 31 32 24 14 12 12 17 23 41 51 50 50 46 42 38 35 31 29 26 23 23 22 26 22 31 21 21 26 25 23 22 19 23 21 23 20 14 16 14 13 16 17 17 18 18 17
20 32 36 39 31 14 19 11 7 24 33 47 53 50 47 43 40 37 35 32 29 26 24 23 22 23 25 26 26 22 25 28 25 20 20 23 22 21 20 17 14 13 12 16 11 10 13 14 13
15 35 33 24 14 8 17 6 9 28 43 53 51 48 45 41 38 34 34 32 29 26 25 25 24 22 17 35 26 21 27 25 25 20 23 20 22 15 17 13 20 13 16 13 13 12 13 11 12
25 29 19 21 23 8 2 14 22 35 47 51 49 46 42 39 37 33 32 33 28 28 25 27 24 23 22 26 26 24 26 25 22 23 20 20 21 18 19 15 14 15 12 11 11 12 12 11 10
27 18 32 15 27 15 13 17 21 37 45 47 47 46 42 38 36 33 32 33 31 27 28 28 27 28 24 30 22 26 28 24 24 23 19 16 13 18 11 13 10 16 9 10 11 10 10 12 11
30 29 32 27 27 26 23 15 21 17 31 46 47 48 45 43 40 36 34 33 30 27 29 31 29 27 26 23 26 24 25 23 23 21 25 16 11 13 11 11 14 13 8 7 7 15 8 9 2
17 27 38 30 28 29 26 20 31 32 18 31 49 51 49 45 42 38 36 33 31 28 27 23 30 30 29 23 26 25 26 24 24 21 16 18 12 10 23 9 11 14 7 17 6 3 11 8 4
25 7 40 21 32 10 22 33 40 41 45 38 42 49 48 44 47 40 37 35 31 29 27 27 24 28 28 19 22 22 25 21 24 20 20 16 15 12 11 15 12 13 10 9 1 4 5 9 5
32 7 34 37 38 28 28 20 40 45 41 44 38 52 52 54 51 45 44 38 34 31 28 28 22 28 27 21 17 20 20 17 18 14 19 20 17 15 11 14 10 14 17 10 6 3 5 9 7
31 9 28 46 46 18 43 9 31 35 38 45 39 54 50 51 44 58 47 40 39 31 27 28 25 24 26 26 21 24 21 17 18 15 19 18 18 18 15 13 16 24 11 7 3 3 10 9 7
4 22 32 65 28 18 34 12 22 41 41 47 54 58 63 52 67 57 45 46 37 34 30 27 29 23 28 24 29 21 16 13 13 17 19 23 24 18 18 16 14 20 10 16 3 6 5 1 7
7 20 13 16 10 22 26 14 25 32 49 51 69 72 74 78 53 61 49 53 41 36 33 29 31 26 24 24 20 20 15 13 14 18 13 14 11 18 22 19 18 18 14 11 9 9 11 3 5
20 24 9 14 14 6 44 22 18 49 62 65 51 67 59 59 61 56 48 52 48 44 36 34 33 32 27 24 23 18 17 13 12 15 14 16 16 17 25 23 26 18 23 14 12 13 11 9 3
34 26 13 18 20 19 20 12 23 42 68 64 64 61 53 50 56 57 55 56 40 50 37 35 35 34 31 27 26 21 17 11 14 13 14 13 17 19 24 22 19 17 20 19 18 11 12 14 11
32 31 37 27 37 8 18 18 21 25 43 46 65 69 66 61 54 57 57 52 42 48 45 39 35 34 32 26 28 26 21 19 16 18 16 16 19 19 21 23 21 20 21 20 18 15 18 9 18
34 34 32 21 37 31 23 18 25 34 33 35 50 71 77 69 51 58 58 50 50 44 54 40 37 38 34 31 23 19 21 19 19 14 19 20 20 20 27 22 22 22 21 19 20 17 23 20 18
26 28 32 31 32 13 16 6 5 41 36 38 50 59 63 40 52 38 51 54 52 55 39 45 39 36 35 34 30 25 21 19 18 16 16 17 24 32 28 24 24 21 22 21 23 27 13 18 18
36 36 31 24 39 29 9 10 8 12 28 43 38 52 63 68 68 31 37 38 49 27 44 45 48 37 34 31 31 28 25 22 21 20 18 17 17 26 25 26 27 26 25 23 22 21 20 22 21
Wind_Direction_500mb
151 348 296 261 251 230 153 82 117 116 104 103 92 69 71 36 53 98 136 136 134 135 132 123 122 117 112 109 106 101 97 91 89 92 93 91 93 93 96 101 97 97 96 90 89 83 85 84 84
128 240 302 258 259 163 114 122 120 108 117 106 104 102 74 59 102 121 127 135 134 129 128 126 120 114 115 112 105 98 94 90 86 94 98 94 97 95 96 102 98 95 92 89 85 84 87 82 83
131 236 267 257 251 281 111 127 106 117 117 98 95 59 44 106 118 124 133 134 130 136 134 133 124 120 113 107 105 101 100 94 91 95 97 99 100 99 97 97 99 95 90 88 85 86 81 83 84
243 277 296 294 144 132 124 120 125 131 93 88 108 83 104 111 121 132 134 135 144 125 136 131 126 123 123 118 112 110 101 100 96 95 98 97 103 104 101 97 95 92 90 87 84 85 81 86 85
303 277 147 215 116 75 114 125 132 130 114 127 95 110 113 113 129 132 135 137 135 132 130 130 126 117 114 112 109 116 114 106 104 101 99 100 104 107 104 95 93 93 90 87 85 85 82 83 84
286 279 146 162 128 122 66 130 152 125 105 98 109 122 113 131 135 136 137 136 131 136 135 123 123 120 118 120 112 114 115 112 109 108 99 101 111 108 106 97 96 94 88 83 82 82 82 81 84
262 213 224 130 145 124 100 4 171 126 145 123 126 120 131 140 141 139 136 128 126 136 127 126 119 121 118 120 115 116 113 116 118 116 106 104 114 113 109 99 100 92 85 82 82 81 81 81 81
235 299 195 151 184 114 128 159 142 113 98 131 132 133 149 146 147 142 140 128 142 119 128 134 132 118 106 107 120 121 122 119 119 117 107 101 101 105 96 98 103 90 87 85 80 76 73 73 77
269 261 255 176 169 126 157 130 70 108 132 155 119 140 145 146 149 148 144 143 142 140 134 142 103 125 138 112 114 112 115 113 109 114 106 93 98 103 104 117 103 92 83 78 72 72 68 71 63
209 291 2 349 144 157 152 153 153 153 152 137 125 133 145 147 151 152 153 147 151 145 138 138 134 141 122 119 121 111 100 114 122 119 97 112 120 118 122 112 104 93 80 69 64 64 61 64 39
234 355 34 93 122 137 131 153 164 140 174 153 140 147 151 149 152 151 149 152 145 153 130 126 121 135 117 129 104 116 109 111 126 113 115 119 110 103 112 101 81 76 48 56 42 25 68 87 79
196 262 37 102 130 132 137 120 101 139 176 145 149 152 152 153 155 154 152 151 149 148 134 132 144 146 127 128 107 127 131 134 127 138 116 111 111 119 121 121 117 99 96 75 69 68 94 87 79
141 84 95 122 123 126 125 78 142 144 144 147 150 155 156 156 156 154 151 150 153 152 146 144 144 144 139 122 128 129 132 134 137 123 131 117 124 121 121 128 109 113 106 84 78 80 85 91 86
156 104 116 121 112 102 135 86 251 127 161 151 155 160 160 157 157 152 153 153 155 154 150 145 148 133 155 128 128 128 133 133 131 138 131 122 125 124 122 111 102 113 74 82 85 100 85 92 86
166 124 125 128 113 93 128 59 143 147 149 152 158 163 161 160 157 158 156 156 158 159 158 151 147 149 163 132 128 127 133 133 135 142 126 130 125 129 128 126 117 89 76 75 66 83 88 84 83
190 165 158 133 145 143 265 165 271 154 156 158 162 164 162 162 161 162 161 158 159 157 157 152 153 152 135 135 133 132 135 138 142 137 135 141 146 135 106 103 99 117 82 90 83 92 90 94 100
209 228 125 144 176 148 209 149 220 166 166 165 168 164 164 163 162 163 161 160 160 157 157 154 155 154 147 152 137 142 140 140 143 144 148 149 133 133 103 121 133 98 81 104 95 93 85 103 117
196 208 147 139 183 172 197 150 175 200 189 174 174 168 166 165 164 163 161 159 158 156 168 151 158 156 155 156 144 146 145 149 151 152 162 139 153 138 147 133 128 119 119 120 78 81 86 87 92
275 252 130 147 158 173 201 189 180 190 218 219 183 177 176 171 160 165 159 160 161 164 172 159 161 159 161 154 149 153 147 153 160 159 168 166 163 167 141 150 139 121 46 91 121 109 47 99 84
251 252 107 130 131 112 172 189 181 186 204 218 180 199 174 169 156 168 163 165 164 167 173 181 181 169 166 165 161 162 162 161 157 181 173 167 176 176 165 130 161 170 106 132 98 103 100 88 2
244 257 147 161 170 213 189 196 178 191 216 236 229 214 182 159 166 175 173 174 164 172 179 185 193 177 170 179 161 153 151 164 155 172 176 186 178 182 169 168 155 160 148 163 112 119 73 107 65
229 220 108 162 159 183 193 158 181 167 200 232 240 208 199 170 184 172 182 176 177 174 180 185 192 192 185 172 165 177 156 165 183 181 185 191 188 186 185 201 188 170 227 135 132 156 118 353 109
266 250 130 243 146 88 198 240 142 166 187 217 236 190 220 180 194 187 178 176 178 177 180 182 184 195 181 199 176 157 164 172 167 177 182 199 203 186 191 204 195 181 156 215 153 161 140 351 53
58 245 220 276 187 214 160 187 169 174 185 209 214 201 193 198 196 176 185 175 174 179 180 179 184 186 186 187 177 182 186 162 150 184 176 174 189 199 196 204 204 204 194 191 192 202 183 66 158
215 220 182 227 214 228 164 210 160 182 189 191 191 200 202 195 187 176 179 183 170 173 182 177 182 185 181 180 186 178 173 173 172 181 161 177 186 198 212 200 215 211 192 205 201 218 201 202 207
212 214 209 207 219 178 143 213 134 179 175 192 193 192 199 210 197 184 181 174 175 189 179 180 180 185 183 181 192 194 197 174 183 187 190 178 197 194 226 205 213 191 217 210 231 222 215 229 227
200 220 243 269 278 174 253 108 124 152 157 175 183 184 203 206 211 190 178 175 184 183 181 180 183 185 184 191 189 192 201 190 181 192 198 210 176 199 225 193 192 199 214 216 234 219 237 228 229
259 210 233 231 265 270 143 219 140 166 182 178 180 187 191 200 217 192 178 179 191 187 178 185 183 185 183 189 197 194 192 207 201 209 195 212 200 210 221 196 204 208 220 221 226 227 246 229 221
211 245 230 242 247 261 263 139 231 161 173 178 182 187 186 191 200 235 188 170 182 181 183 181 185 185 184 188 198 189 201 205 214 215 216 218 218 204 206 202 206 208 217 221 230 199 214 227 237
223 218 237 238 236 269 286 247 359 65 153 166 169 169 182 177 175 217 189 196 173 179 184 186 195 189 190 192 199 195 193 202 210 217 226 222 218 205 203 201 208 197 211 222 223 227 223 234 234
Wind_Speed_850mb
7 1 8 13 6 8 11 16 26 32 29 30 23 28 34 38 20 26 53 43 40 35 32 30 29 30 30 29 29 29 30 31 31 33 32 35 37 37 38 38 39 39 39 37 37 34 30 33 33
5 7 5 8 6 9 17 27 34 25 32 32 30 24 41 28 43 59 51 47 40 34 28 27 29 27 27 26 25 27 30 30 31 31 33 35 37 34 38 39 36 38 38 38 36 33 31 32 32
11 9 6 5 4 3 21 23 34 34 37 29 26 27 22 43 50 45 53 48 44 40 33 29 27 23 22 24 23 23 25 27 29 30 31 35 35 38 39 40 39 35 35 35 32 30 30 33 31
4 10 8 4 12 3 18 28 37 44 29 18 33 26 29 38 37 53 51 46 35 31 25 27 22 20 18 18 18 20 21 25 29 28 30 33 35 36 38 36 31 30 31 30 32 31 28 30 31
5 6 2 5 16 8 15 38 43 31 29 26 19 39 49 28 48 51 47 39 43 35 27 26 23 19 18 19 18 19 22 24 27 29 31 31 32 32 35 35 34 36 35 35 34 31 31 31 32
3 8 3 5 17 10 19 27 31 30 29 30 49 46 34 41 49 47 42 40 32 36 32 23 22 19 21 21 20 21 22 24 27 27 31 30 32 31 33 34 36 37 37 37 37 35 33 34 33
7 4 3 7 19 21 9 13 20 28 24 42 33 37 38 48 44 44 40 38 33 28 27 22 18 18 19 22 21 23 24 25 29 27 28 30 31 29 30 32 36 37 36 38 37 36 34 34 34
8 5 8 7 14 10 9 7 5 10 25 30 39 18 47 51 46 43 39 31 31 25 23 27 22 16 22 19 23 24 27 26 29 28 29 30 32 31 30 28 33 31 35 35 36 37 37 36 37
10 7 5 11 17 13 12 12 7 16 24 15 12 43 53 51 46 44 39 32 28 23 28 23 18 25 19 20 21 23 25 28 27 27 32 35 23 25 26 28 34 34 35 35 38 38 33 35 41
12 5 10 12 18 25 17 24 20 25 23 18 40 50 52 49 46 44 42 35 29 25 23 23 27 19 26 20 22 22 26 22 23 23 27 28 31 29 23 30 30 31 33 33 35 33 31 21 15
11 3 5 5 27 39 20 25 27 26 18 36 51 60 52 50 44 41 37 32 30 25 28 27 25 25 20 17 21 21 14 19 26 24 25 26 26 27 20 23 20 18 22 17 21 17 22 18 18
5 5 22 27 40 29 16 14 10 17 19 35 49 54 53 49 44 41 38 34 29 24 25 24 25 15 21 19 24 19 20 20 22 21 24 27 23 22 17 17 17 15 14 18 20 19 18 18 19
12 8 28 31 32 24 14 12 12 17 23 41 51 50 50 46 42 38 35 31 29 26 23 23 22 26 22 31 21 21 26 25 23 22 19 23 21 23 20 14 16 14 13 16 17 17 18 18 17
20 32 36 39 31 14 19 11 7 24 33 47 53 50 47 43 40 37 35 32 29 26 24 23 22 23 25 26 26 22 25 28 25 20 20 23 22 21 20 17 14 13 12 16 11 10 13 14 13
15 35 33 24 14 8 17 6 9 28 43 53 51 48 45 41 38 34 34 32 29 26 25 25 24 22 17 35 26 21 27 25 25 20 23 20 22 15 17 13 20 13 16 13 13 12 13 11 12
25 29 19 21 23 8 2 14 22 35 47 51 49 46 42 39 37 33 32 33 28 28 25 27 24 23 22 26 26 24 26 25 22 23 20 20 21 18 19 15 14 15 12 11 11 12 12 11 10
27 18 32 15 27 15 13 17 21 37 45 47 47 46 42 38 36 33 32 33 31 27 28 28 27 28 24 30 22 26 28 24 24 23 19 16 13 18 11 13 10 16 9 10 11 10 10 12 11
30 29 32 27 27 26 23 15 21 17 31 46 47 48 45 43 40 36 34 33 30 27 29 31 29 27 26 23 26 24 25 23 23 21 25 16 11 13 11 11 14 13 8 7 7 15 8 9 2
17 27 38 30 28 29 26 20 31 32 18 31 49 51 49 45 42 38 36 33 31 28 27 23 30 30 29 23 26 25 26 24 24 21 16 18 12 10 23 9 11 14 7 17 6 3 11 8 4
25 7 40 21 32 10 22 33 40 41 45 38 42 49 48 44 47 40 37 35 31 29 27 27 24 28 28 19 22 22 25 21 24 20 20 16 15 12 11 15 12 13 10 9 1 4 5 9 5
32 7 34 37 38 28 28 20 40 45 41 44 38 52 52 54 51 45 44 38 34 31 28 28 22 28 27 21 17 20 20 17 18 14 19 20 17 15 11 14 10 14 17 10 6 3 5 9 7
31 9 28 46 46 18 43 9 31 35 38 45 39 54 50 51 44 58 47 40 39 31 27 28 25 24 26 26 21 24 21 17 18 15 19 18 18 18 15 13 16 24 11 7 3 3 10 9 7
4 22 32 65 28 18 34 12 22 41 41 47 54 58 63 52 67 57 45 46 37 34 30 27 29 23 28 24 29 21 16 13 13 17 19 23 24 18 18 16 14 20 10 16 3 6 5 1 7
7 20 13 16 10 22 26 14 25 32 49 51 69 72 74 78 53 61 49 53 41 36 33 29 31 26 24 24 20 20 15 13 14 18 13 14 11 18 22 19 18 18 14 11 9 9 11 3 5
20 24 9 14 14 6 44 22 18 49 62 65 51 67 59 59 61 56 48 52 48 44 36 34 33 32 27 24 23 18 17 13 12 15 14 16 16 17 25 23 26 18 23 14 12 13 11 9 3
34 26 13 18 20 19 20 12 23 42 68 64 64 61 53 50 56 57 55 56 40 50 37 35 35 34 31 27 26 21 17 11 14 13 14 13 17 19 24 22 19 17 20 19 18 11 12 14 11
32 31 37 27 37 8 18 18 21 25 43 46 65 69 66 61 54 57 57 52 42 48 45 39 35 34 32 26 28 26 21 19 16 18 16 16 19 19 21 23 21 20 21 20 18 15 18 9 18
34 34 32 21 37 31 23 18 25 34 33 35 50 71 77 69 51 58 58 50 50 44 54 40 37 38 34 31 23 19 21 19 19 14 19 20 20 20 27 22 22 22 21 19 20 17 23 20 18
26 28 32 31 32 13 16 6 5 41 36 38 50 59 63 40 52 38 51 54 52 55 39 45 39 36 35 34 30 25 21 19 18 16 16 17 24 32 28 24 24 21 22 21 23 27 13 18 18
36 36 31 24 39 29 9 10 8 12 28 43 38 52 63 68 68 31 37 38 49 27 44 45 48 37 34 31 31 28 25 22 21 20 18 17 17 26 25 26 27 26 25 23 22 21 20 22 21
Wind_Direction_850mb
151 348 296 261 251 230 153 82 117 116 104 103 92 69 71 36 53 98 136 136 134 135 132 123 122 117 112 109 106 101 97 91 89 92 93 91 93 93 96 101 97 97 96 90 89 83 85 84 84
128 240 302 258 259 163 114 122 120 108 117 106 104 102 74 59 102 121 127 135 134 129 128 126 120 114 115 112 105 98 94 90 86 94 98 94 97 95 96 102 98 95 92 89 85 84 87 82 83
131 236 267 257 251 281 111 127 106 117 117 98 95 59 44 106 118 124 133 134 130 136 134 133 124 120 113 107 105 101 100 94 91 95 97 99 100 99 97 97 99 95 90 88 85 86 81 83 84
243 277 296 294 144 132 124 120 125 131 93 88 108 83 104 111 121 132 134 135 144 125 136 131 126 123 123 118 112 110 101 100 96 95 98 97 103 104 101 97 95 92 90 87 84 85 81 86 85
303 277 147 215 116 75 114 125 132 130 114 127 95 110 113 113 129 132 135 137 135 132 130 130 126 117 114 112 109 116 114 106 104 101 99 100 104 107 104 95 93 93 90 87 85 85 82 83 84
286 279 146 162 128 122 66 130 152 125 105 98 109 122 113 131 135 136 137 136 131 136 135 123 123 120 118 120 112 114 115 112 109 108 99 101 111 108 106 97 96 94 88 83 82 82 82 81 84
262 213 224 130 145 124 100 4 171 126 145 123 126 120 131 140 141 139 136 128 126 136 127 126 119 121 118 120 115 116 113 116 118 116 106 104 114 113 109 99 100 92 85 82 82 81 81 81 81
235 299 195 151 184 114 128 159 142 113 98 131 132 133 149 146 147 142 140 128 142 119 128 134 132 118 106 107 120 121 122 119 119 117 107 101 101 105 96 98 103 90 87 85 80 76 73 73 77
269 261 255 176 169 126 157 130 70 108 132 155 119 140 145 146 149 148 144 143 142 140 134 142 103 125 138 112 114 112 115 113 109 114 106 93 98 103 104 117 103 92 83 78 72 72 68 71 63
209 291 2 349 144 157 152 153 153 153 152 137 125 133 145 147 151 152 153 147 151 145 138 138 134 141 122 119 121 111 100 114 122 119 97 112 120 118 122 112 104 93 80 69 64 64 61 64 39
234 355 34 93 122 137 131 153 164 140 174 153 140 147 151 149 152 151 149 152 145 153 130 126 121 135 117 129 104 116 109 111 126 113 115 119 110 103 112 101 81 76 48 56 42 25 68 87 79
196 262 37 102 130 132 137 120 101 139 176 145 149 152 152 153 155 154 152 151 149 148 134 132 144 146 127 128 107 127 131 134 127 138 116 111 111 119 121 121 117 99 96 75 69 68 94 87 79
141 84 95 122 123 126 125 78 142 144 144 147 150 155 156 156 156 154 151 150 153 152 146 144 144 144 139 122 128 129 132 134 137 123 131 117 124 121 121 128 109 113 106 84 78 80 85 91 86
156 104 116 121 112 102 135 86 251 127 161 151 155 160 160 157 157 152 153 153 155 154 150 145 148 133 155 128 128 128 133 133 131 138 131 122 125 124 122 111 102 113 74 82 85 100 85 92 86
166 124 125 128 113 93 128 59 143 147 149 152 158 163 161 160 157 158 156 156 158 159 158 151 147 149 163 132 128 127 133 133 135 142 126 130 125 129 128 126 117 89 76 75 66 83 88 84 83
190 165 158 133 145 143 265 165 271 154 156 158 162 164 162 162 161 162 161 158 159 157 157 152 153 152 135 135 133 132 135 138 142 137 135 141 146 135 106 103 99 117 82 90 83 92 90 94 100
209 228 125 144 176 148 209 149 220 166 166 165 168 164 164 163 162 163 161 160 160 157 157 154 155 154 147 152 137 142 140 140 143 144 148 149 133 133 103 121 133 98 81 104 95 93 85 103 117
196 208 147 139 183 172 197 150 175 200 189 174 174 168 166 165 164 163 161 159 158 156 168 151 158 156 155 156 144 146 145 149 151 152 162 139 153 138 147 133 128 119 119 120 78 81 86 87 92
275 252 130 147 158 173 201 189 180 190 218 219 183 177 176 171 160 165 159 160 161 164 172 159 161 159 161 154 149 153 147 153 160 159 168 166 163 167 141 150 139 121 46 91 121 109 47 99 84
251 252 107 130 131 112 172 189 181 186 204 218 180 199 174 169 156 168 163 165 164 167 173 181 181 169 166 165 161 162 162 161 157 181 173 167 176 176 165 130 161 170 106 132 98 103 100 88 2
244 257 147 161 170 213 189 196 178 191 216 236 229 214 182 159 166 175 173 174 164 172 179 185 193 177 170 179 161 153 151 164 155 172 176 186 178 182 169 168 155 160 148 163 112 119 73 107 65
229 220 108 162 159 183 193 158 181 167 200 232 240 208 199 170 184 172 182 176 177 174 180 185 192 192 185 172 165 177 156 165 183 181 185 191 188 186 185 201 188 170 227 135 132 156 118 353 109
266 250 130 243 146 88 198 240 142 166 187 217 236 190 220 180 194 187 178 176 178 177 180 182 184 195 181 199 176 157 164 172 167 177 182 199 203 186 191 204 195 181 156 215 153 161 140 351 53
58 245 220 276 187 214 160 187 169 174 185 209 214 201 193 198 196 176 185 175 174 179 180 179 184 186 186 187 177 182 186 162 150 184 176 174 189 199 196 204 204 204 194 191 192 202 183 66 158
215 220 182 227 214 228 164 210 160 182 189 191 191 200 202 195 187 176 179 183 170 173 182 177 182 185 181 180 186 178 173 173 172 181 161 177 186 198 212 200 215 211 192 205 201 218 201 202 207
212 214 209 207 219 178 143 213 134 179 175 192 193 192 199 210 197 184 181 174 175 189 179 180 180 185 183 181 192 194 197 174 183 187 190 178 197 194 226 205 213 191 217 210 231 222 215 229 227
200 220 243 269 278 174 253 108 124 152 157 175 183 184 203 206 211 190 178 175 184 183 181 180 183 185 184 191 189 192 201 190 181 192 198 210 176 199 225 193 192 199 214 216 234 219 237 228 229
259 210 233 231 265 270 143 219 140 166 182 178 180 187 191 200 217 192 178 179 191 187 178 185 183 185 183 189 197 194 192 207 201 209 195 212 200 210 221 196 204 208 220 221 226 227 246 229 221
211 245 230 242 247 261 263 139 231 161 173 178 182 187 186 191 200 235 188 170 182 181 183 181 185 185 184 188 198 189 201 205 214 215 216 218 218 204 206 202 206 208 217 221 230 199 214 227 237
223 218 237 238 236 269 286 247 359 65 153 166 169 169 182 177 175 217 189 196 173 179 184 186 195 189 190 192 199 195 193 202 210 217 226 222 218 205 203 201 208 197 211 222 223 227 223 234 234